Flag for United Arab Emirates Weather past 2 weeks in Umm al-Quwain, Umm al-Quwain, United Arab Emirates

Now
93 °F

Sunny.


Feels Like: 96 °F
Forecast: 83 / 95 °F
Wind: 13 mph from Southwest

Location: Sharjah International Airport

Current Time: May 28, 2015 at 9:15:53 AM

Latest Report: May 28, 2015 at 9:00 AM


Visibility: 10 mi

Pressure: 29.65 "Hg

Humidity: 41%

Dew point: 66 °F

Location of Umm al-QuwainLocation

Historic Weather in Umm al-Quwain — Graph

°F

Umm al-Quwain temperature yesterday

Maximum temperature yesterday: 102 °F (at 12:00 PM)
Minimum temperature yesterday: 84 °F (at 6:00 AM)
Average temperature yesterday: 94 °F

Past Weeks' High & Low Weather Summary

 TemperatureHumidityPressure
High109 °F (May 13, 12:00 PM)79% (May 20, 3:00 AM)29.83 "Hg (May 20, 3:00 AM)
Low73 °F (May 22, 6:00 AM)7% (May 13, 11:00 AM)29.62 "Hg (May 16, 4:00 PM)
Average92 °F37%29.69 "Hg
* Reported May 13 8:00 AM — May 28 8:00 AM, Umm al-Quwain, Weather by CustomWeather, © 2015

Note: Actual official high and low records may vary slightly from our data, if they occured in-between our weather recording intervals... More about our weather records

Advertising

Umm al-Quwain weather history for previous 24 hours

 ConditionsComfort  
Time TempWeatherWind HumidityBarometerVisibility
8:00 AM
Thu, May 28
88 °FPassing clouds.10 mph35%29.65 "HgN/A
7:00 AM84 °FSunny.9 mph40%29.65 "Hg10 mi
6:00 AM82 °FSunny.3 mph42%29.62 "Hg10 mi
5:00 AM84 °FClear.12 mph37%29.62 "Hg10 mi
4:00 AM84 °FClear.7 mph40%29.62 "Hg10 mi
3:00 AM84 °FClear.9 mph43%29.62 "Hg10 mi
2:00 AM86 °FClear.8 mph40%29.62 "Hg10 mi
1:00 AM93 °FClear.10 mph28%29.65 "Hg10 mi
12:00 AM93 °FClear.16 mph26%29.65 "Hg10 mi
11:00 PM
Wed, May 27
93 °FClear.14 mph30%29.68 "Hg10 mi
10:00 PM95 °FClear.15 mph26%29.68 "Hg10 mi
9:00 PM93 °FClear.16 mph32%29.68 "Hg10 mi
8:00 PM93 °FClear.20 mph32%29.68 "Hg10 mi
7:00 PM93 °FClear.22 mph34%29.68 "Hg5 mi
6:00 PM97 °FClear.24 mph28%29.68 "Hg5 mi
5:00 PM97 °FClear.24 mph27%29.68 "Hg4 mi
4:00 PM99 °FClear.22 mph25%29.68 "Hg4 mi
3:00 PM99 °FClear.14 mph27%29.68 "Hg4 mi
2:00 PM100 °FClear.24 mph22%29.68 "Hg4 mi
1:00 PM100 °FClear.22 mph21%29.71 "Hg4 mi
12:00 PM102 °FClear.22 mph18%29.71 "Hg5 mi
11:00 AM100 °FClear.22 mph22%29.74 "Hg5 mi
10:00 AM99 °FSunny.24 mph22%29.74 "Hg10 mi
9:00 AM99 °FSunny.20 mph21%29.74 "Hg10 mi
Weather by CustomWeather, © 2015

See weather overviewHow to use our weather pages